Regional Weather Roundup
Issued by NWS Wakefield, VA

Home | Current Version | Previous Version | Graphics & Text | Print | Product List | Glossary On
Versions: 1 2 3 4 5 6 7 8 9 10 11 12 13 14 15 16 17 18 19 20 21 22 23 24 25 26 27 28 29 30 31 32 33 34 35 36 37 38 39 40 41 42 43 44 45 46 47
000
ASUS41 KAKQ 300410
RWRAKQ

REGIONAL WEATHER ROUNDUP
NATIONAL WEATHER SERVICE WAKEFIELD VA
1200 AM EDT TUE SEP 30 2014

Note: "fair" indicates few or no clouds below 12,000 feet with no
significant weather and/or obstructions to visibility. * = Denotes
station may not report precipitation (e.g., rain,snow,etc.),
thunder or fog.

VAZ042-051-052>054-056-300500-
NORTHERN VIRGINIA

CITY           SKY/WX    TMP DP  RH WIND       PRES   REMARKS
WASH NATIONAL  CLOUDY    70  64  83 S7        29.95S
DULLES         CLOUDY    63  62  97 S3        29.94F
FORT BELVOIR   NOT AVBL
QUANTICO       CLOUDY    66  63  90 SW6       29.96S
FREDERICKSBRG* MOCLDY    64  64 100 CALM      29.94F
STAFFORD*      CLOUDY    60  60 100 CALM      29.99F FOG
WARRENTON      CLOUDY    65  65 100 CALM      29.94S FOG
CULPEPER*      FOG       61  61 100 CALM      29.95S VSB 1/4
MANASSAS*      CLOUDY    64  64 100 SE6       29.94F
LEESBURG*      CLOUDY    64  64 100 S3        29.94F
WINCHESTER     MOCLDY    64  61  88 CALM      29.94S
FRONT ROYAL*   MOCLDY    63  61  94 CALM      29.93S
LURAY*         CLEAR     61  61 100 CALM      29.96S
$$

VAZ048-049-060>072-079>083-300500-
CENTRAL AND SOUTH CENTRAL VIRGINIA...AND NORTH CENTRAL NORTH CAROLINA

CITY           SKY/WX    TMP DP  RH WIND       PRES   REMARKS
RICHMOND       CLOUDY    65  64  97 S5        29.96S
CHESTERFIELD*  CLOUDY   N/A N/A N/A W5        29.97F
PETERSBURG*    FOG       62  61  96 CALM      29.96F VSB 3/4
HANOVER        MOCLDY    65  64  97 CALM      29.97F
TAPPAHANNOCK*  MOCLDY    64  62  91 CALM      29.97S
CHARLOTTSVILLE FOG       64  64 100 S6        29.95S VSB 3/4
ORANGE*        FOG       64  63  94 CALM      29.96F VSB 3/4
LOUISA*        FOG       64  64 100 S3        29.95S VSB 1/2
FARMVILLE*     CLOUDY    64  63  94 SW5       29.95S FOG
CREWE*         CLOUDY    65  63  94 S3        29.96F
FORT PICKETT*  CLOUDY    65  64  97 SW6       29.97F
LUNENBURG*     CLOUDY    65  65  99 CALM      29.96F
SOUTH HILL*    LGT RAIN  66  66 100 CALM      30.01F VSB 1
LAWRENCEVILLE* CLOUDY    63  63 100 CALM      29.96S
ROANOKE RAPIDS MOCLDY    61  61 100 CALM      29.96S
RALEIGH        LGT RAIN  65  62  90 CALM      29.98F FOG
$$

VAZ088>098-300500-
SOUTHEAST VIRGINIA

CITY           SKY/WX    TMP DP  RH WIND       PRES   REMARKS
NORFOLK        LGT RAIN  68  63  84 NW5       29.95F
VIRGINIA BEACH CLOUDY    69  64  84 CALM      29.94F
NORFOLK NAVAL  LGT RAIN  68  64  87 W3        29.96F
WEST POINT*    CLOUDY    66  64  92 CALM      29.97S
NEWPORT NEWS   LGT RAIN  68  63  84 NW3       29.96S
LANGLEY AFB    LGT RAIN  64  64 100 N2        29.96F
FORT EUSTIS    CLOUDY    64 N/A N/A CALM      29.95R
WILLIAMSBURG*  CLOUDY    66  64  94 W5        29.97S
HR EXEC AP*    CLOUDY    63  61  94 CALM      29.97F
FRANKLIN*      CLOUDY    63 N/A N/A CALM      29.96S
WAKEFIELD      CLOUDY    64  61  90 CALM      29.96F
$$

VAZ020-022-025-037-045-300500-
WEST CENTRAL AND SOUTHWEST VIRGINIA

CITY           SKY/WX    TMP DP  RH WIND       PRES   REMARKS
STAUNTON*      CLEAR     58  55  89 CALM      29.98S
HOT SPRINGS VA PTCLDY    55  45  68 W5        30.07F
LYNCHBURG      CLOUDY    63  63 100 S5        29.98S FOG
DANVILLE       PTCLDY    62  60  93 SW3       29.97F FOG
SOUTH BOSTON*  NOT AVBL
MARTINSVILLE   CLOUDY    64  64 100 CALM      30.00S FOG
ROANOKE        PTCLDY    63  60  90 CALM      29.99S
BLACKSBURG     CLEAR     57  57 100 CALM      30.02F
DUBLIN*        FOG       58  58 100 CALM      30.02F VSB 1/4
MARION*        FOG       57  56  96 CALM      30.06S VSB 1/4
HILLSVILLE*    FOG       57  57 100 SW3       30.03F VSB<1/4
RICHLANDS*     CLEAR     64  58  81 CALM      30.04S
WISE*          CLEAR     61  61 100 CALM      30.05S
ABINGDON*      PTCLDY    59  59  98 CALM      30.02S
$$

MDZ021>025-VAZ099-100-300500-
SOUTHERN MARYLAND AND THE DELMARVA PENINSULA

CITY           SKY/WX    TMP DP  RH WIND       PRES   REMARKS
PATUXENT RIVER CLOUDY    65  62  90 CALM      29.95S
BAY BRIDGE APT   N/A     66  66 100 CALM      29.94F
LEONARDTOWN    CLOUDY    63  61  94 CALM      29.97S
DOVER          CLOUDY    65  65 100 S2        29.93S
GEORGETOWN     LGT RAIN  66  64  93 S9        29.96S
EASTON         CLOUDY    66  66 100 CALM      29.98F
CAMBRIDGE      CLOUDY    63  61  94 CALM      29.94F
SALISBURY      LGT RAIN  67  63  87 NW3       29.96S
OCEAN CITY     LGT RAIN N/A N/A N/A NW5       29.95S
WALLOPS ISLAND LGT RAIN  66  64  93 NW3       29.96S
ACCOMACK*      CLOUDY    64  61  88 N3        29.95F
$$

NCZ012>017-030>032-300500-
EASTERN NORTH CAROLINA

CITY           SKY/WX    TMP DP  RH WIND       PRES   REMARKS
ELIZABETH CITY CLOUDY    66  63  90 NW7       29.95S
AHOSKIE*       DRIZZLE   62  61  97 CALM      29.96F
EDENTON*       CLOUDY    65  62  89 CALM      29.96R
CURRITUCK*     CLOUDY    67  64  90 CALM      29.94F
KILL DEVIL HLS CLOUDY    69  65  86 CALM      29.92S
MANTEO         CLOUDY    69  65  88 N3        29.93S
CAPE HATTERAS  LGT RAIN  67  67 100 N5        29.92F
TARBORO*       CLOUDY    64  63  95 CALM      29.97S FOG
GOLDSBORO      MOCLDY    64  63  98 CALM      29.94F
WASHINGTON     CLOUDY    64  63  96 CALM      29.96F
GREENVILLE     LGT RAIN  64  64 100 CALM      29.98S
NEW BERN       CLOUDY    69  65  86 CALM      29.96S
WILMINGTON     CLOUDY    66  65  96 N3        29.94F
$$

VAZ048-300500-
ELSEWHERE

CITY           SKY/WX    TMP DP  RH WIND       PRES   REMARKS
HARRISBURG PA  MOCLDY    65  62  90 CALM      29.92S
BALTIMORE      CLOUDY    65  63  93 CALM      29.93F
ANNAPOLIS        N/A     67  63  87 CALM      29.94F
ANDREWS AFB    CLOUDY    64  64 100 S7        29.94F
WILMINGTON DE  CLOUDY    65  63  93 S6        29.95F
PHILADELPHIA   CLOUDY    67  63  87 SW6       29.94F
WILDWOOD NJ*   CLOUDY    64  61  88 CALM      29.96R
ATLANTIC CITY  LGT RAIN  65  63  93 NW7       29.94F
HENDERSON NC   CLOUDY    64  62  95 SW3       29.98S FOG
GREENSBORO     PTCLDY    62  62 100 SW5       29.97F FOG
ROCKY MOUNT    FOG       62  61  96 CALM      29.96F VSB 1/2
FAYETTEVILLE   MOCLDY    64  63  96 CALM      29.96F
CHARLOTTE      CLOUDY    65  62  90 CALM      29.99F
$$

VAZ100-300500-
MARINE

STATION/POSITION TIME  TEMP    WIND        PRES    WAVE   SWELL
                       AIR SEA DIR/SP/G            HT/PER HT/PER
                 (UTC) (F)     (DEG/KT/KT) (MB)    (FT/S) (FT/S)
44066 TX TWR #4  0400   70 71  260/  4/  6 1013.6F   2/ 8   2/ 8
CAPE MAY NJ      0400   69 74   CALM  /  1 1013.6S
LEWES DE         0400   66 70  230/  4/  5 1014.0
15NM E FENWICK I 0400   71 71              1013.8F   2/ 7
OCEAN-CITY-INLET 0400          340/  6/  7   N/A
WACHAPREAGUE VA  0400   66 73  320/  1/  3 1014.3
THOMAS POINT MD  0400   68 71  210/  7/  7 1014.9F
GOOSES REEF MD   0400   68     210/  8/  8 1014.5F
COVE POINT MD    0400   66     210/  5/  5 1014.0
SOLOMONS ISLAND  0400      72                N/A
BISHOPS HEAD MD  0400   68 72  210/  7/  8 1013.9R
PINEY POINT MD   0400          240/  6/  7   N/A
POTOMAC MD       0400   67     230/  4/  6 1013.7S
CAMBRIDGE MD     0400   66 71  150/  2/  3 1013.7F
LEWISETTA VA     0400   65 71  220/  3/  4 1013.8
RAPPAHANNOCK LGT 0400          330/  3/  4 1014.6
STINGRAY PT      0400   66     260/  4/  6   N/A
YORK RVR RNG VA  0400   66     330/  2/  3 1013.9
YORKTOWN VA      0400   65 73  260/  4/  4 1014.2
JAMESTOWN VA     0400   65     240/  4/  6   N/A
DOMINION TERM VA 0400   67     290/  3/  3 1014.3
KIPTOPEKE VA     0400      76   20/  6/  7   N/A
CHES BAY BRIDGE  0400          310/  9/ 10   N/A
CHESAPEAKE LGHT  0300   71     340/  8/  8 1015.1R
WILLOUBY STN VA  0400   67     360/  2/  2 1013.1
S CRANEY ISL VA  0400          240/  4/  5 1013.9F
CAPE HENRY BUOY  0400      73                N/A     2/ 7
1ST LANDING BUOY 0400   70     320/ 10/ 12 1013.7F
CAPE CHARLES BUO 0400      72                N/A     2/ 8   2/ 8
OFFSHORE WE BUOY 0400      73                N/A     2/ 8   2/ 8
64NM E OF VA BCH 0400   71 71  350/ 10/ 10 1012.8F   2/ 9   2/ 9
DUCK PIER NC     0400   71 73   10/  7/  8 1012.9F
44100 DUCK FRF   0400      72                N/A     2/ 7
44056 DUCK FRF   0400                        N/A     2/ 8
OREGON INLET NC  0400   71 73  360/  7/ 10 1013.2F
HATTERAS NC      0400   71 75   20/  6/  8 1013.8F
DIAMOND SHLS NC  0400   73     360/ 12/ 14 1012.5F   3/ 7   2/ 7
CAPE LOOKOUT NC  0300   71     360/  8/  9 1013.4F
$$


USA.gov is the U.S. government's official web portal to all federal, state and local government web resources and services.